Notices

What’s New in latest Release from January 14th 2021:

·       In Historical Hourly Data Report, users can switch between Local Standard Time (LST) and Universal Time Coordinates (UTC) time.

·       In Historical Hourly Data Report, we have an addition of a new column to display hourly precipitation data for the stations where the data are available, from 2001 onwards.

·       Expanded the Search Options of the Canadian Historical Weather Radar, users now able to select 24 hours (1 image every hour) image viewing duration.

Please note that the IDF dataset is available through this link: Intensity-Duration-Frequency (IDF) Files .

Hourly Data Report for November 27, 2020

MUSKOKA
ONTARIO
Current Station Operator: NAVCAN

44°58'29.000" N
79°18'12.000" W
281.90 m
6115529
71532
YQA

Download Data

Hourly Data (November 2020)
Hourly Data Report for November 27, 2020
TIME
LST
Temp Definition
°C
Dew Point Definition
°C
Rel Hum Definition
%
Precip. Amount Definition
mm

Wind Dir Definition
10's deg

Wind Spd Definition
km/h
Visibility Definition
km
Stn Press Definition
kPa
Hmdx Definition


Wind Chill Definition


Weather Definition


00:00 4.2 3.6 96 LegendMM 20 9 16.1 98.21     LegendNANA
01:00 3.7 3.0 95 LegendMM 19 8 16.1 98.21     LegendNANA
02:00 3.7 3.1 96 LegendMM 17 8 16.1 98.22     LegendNANA
03:00 3.8 3.1 95 LegendMM 20 9 16.1 98.22     LegendNANA
04:00 3.6 3.0 96 LegendMM 19 8 16.1 98.22     LegendNANA
05:00 4.0 3.1 94 LegendMM 22 5 16.1 98.22     LegendNANA
06:00 4.2 3.1 92 LegendMM 24 8 16.1 98.25     LegendNANA
07:00 3.7 2.7 93 LegendMM 20 9 16.1 98.28     LegendNANA
08:00 3.4 2.4 93 LegendMM 19 8 16.1 98.29     LegendNANA
09:00 3.4 2.7 95 LegendMM 18 5 16.1 98.28     LegendNANA
10:00 4.1 3.1 93 LegendMM 20 9 16.1 98.27     LegendNANA
11:00 4.4 3.2 92 LegendMM 21 8 14.5 98.25     Rain
12:00 4.7 3.7 93 LegendMM 21 9 14.5 98.19     LegendNANA
13:00 4.7 3.7 93 LegendMM 25 5 12.9 98.13     Rain
14:00 5.3 4.0 91 LegendMM 24 11 16.1 98.09     Rain
15:00 5.0 3.3 89 LegendMM 26 9 16.1 98.07     LegendNANA
16:00 4.0 2.8 92 LegendMM 31 8 16.1 98.05     LegendNANA
17:00 3.8 2.8 93 LegendMM   0 16.1 98.05     LegendNANA
18:00 3.7 3.1 96 LegendMM 19 5 16.1 98.06     LegendNANA
19:00 3.7 3.1 96 LegendMM 21 5 16.1 98.05     LegendNANA
20:00 3.7 3.3 97 LegendMM 23 5 11.3 98.04     LegendNANA
21:00 3.6 3.0 96 LegendMM 23 5 12.9 98.02     LegendNANA
22:00 3.1 2.8 98 LegendMM 19 8 4.8 98.00     Rain,Fog
23:00 2.8 2.7 99 LegendMM 17 8 4.0 97.95     Fog

Notes on Data Quality.

Legend

  • E = Estimated
  • M = Missing
  • NA = Not Available*
  • [empty] = Indicates an unobserved value
Date modified: